Weather History for KP60 - January, 2012

Change the Weather History Date:

Sunday, January 15, 2012

  Actual Average Record
Temperature  
Mean Temperature 24 °F 13 °F  
Max Temperature 30 °F 24 °F 34 °F (2000)
Min Temperature 15 °F 1 °F -29 °F (2007)
Degree Days  
Heating Degree Days 42 52  
Month to date heating degree days 780  
Since 1 July heating degree days 5690  
Cooling Degree Days 0 0  
Month to date cooling degree days 0  
Year to date cooling degree days 0  
Moisture  
Dew Point 6 °F    
Average Humidity 46    
Maximum Humidity 80    
Minimum Humidity 32    
Precipitation  
Precipitation 0.00 in 0.07 in 1.21 in (2008)
Month to date precipitation 1.22  
Year to date precipitation 1.22  
Sea Level Pressure  
Sea Level Pressure 29.69 in    
Wind  
Wind Speed 6 mph (WSW)    
Max Wind Speed 16 mph    
Max Gust Speed 33 mph    
T = Trace of Precipitation, MM = Missing Value Source: NWS Daily Summary

Daily Weather History Graph

Daily Weather History Graph

Search for Another Location

Airport or City:

Trip Planner

Search our weather history database for the weather conditions in past years. The results will help you decide how hot, cold, wet, or windy it might be!

Date:

Astronomy

Jan. 15, 2012 Rise Set
Actual Time 7:55 AM MST 5:07 PM MST
Civil Twilight 7:22 AM MST 5:39 PM MST
Nautical Twilight 6:46 AM MST 6:15 PM MST
Astronomical Twilight 6:11 AM MST 6:50 PM MST
Moon No Moon Rise 10:55 AM MST (1/15)
Length of Visible Light 10h 17m
Length of Day
9h 12m
Waning Gibbous, 57% of the Moon is Illuminated
Jan 15
Waning Gibbous
Jan 16
Last Quarter
Jan 23
New
Jan 30
First Quarter
Feb 7
Full

Hourly Weather History & Observations

Time (MST) Temp. Windchill Dew Point Humidity Pressure Visibility Wind Dir Wind Speed Gust Speed Precip Events Conditions
12:56 AM 17.1 °F - 8.1 °F 68% 29.85 in - Calm Calm - N/A   Unknown
1:56 AM 28.0 °F 22.8 °F 5.0 °F 38% 29.76 in - Variable 4.6 mph - N/A   Unknown
2:56 AM 28.9 °F 20.4 °F 5.0 °F 36% 29.74 in - West 9.2 mph 21.9 mph N/A   Unknown
3:56 AM 28.9 °F 21.9 °F 3.9 °F 35% 29.72 in - Variable 6.9 mph 20.7 mph N/A   Unknown
4:56 AM 28.0 °F 20.0 °F 5.0 °F 38% 29.71 in - WSW 8.1 mph - N/A   Unknown
5:56 AM 28.0 °F 21.7 °F 5.0 °F 38% 29.70 in - Variable 5.8 mph - N/A   Unknown
6:56 AM 26.1 °F 19.4 °F 5.0 °F 41% 29.73 in - Variable 5.8 mph - N/A   Unknown
7:56 AM 26.1 °F 19.4 °F 5.0 °F 41% 29.72 in - Variable 5.8 mph - N/A   Unknown
8:56 AM 26.1 °F 16.8 °F 5.0 °F 41% 29.73 in - WSW 9.2 mph - N/A   Unknown
9:56 AM 28.9 °F 19.2 °F 5.0 °F 36% 29.74 in - WSW 11.5 mph 24.2 mph N/A   Unknown
10:56 AM 30.0 °F 22.4 °F 5.0 °F 35% 29.73 in - WSW 8.1 mph 28.8 mph N/A   Unknown
11:56 AM 30.9 °F 22.2 °F 6.1 °F 35% 29.72 in - West 10.4 mph 19.6 mph N/A   Unknown
12:56 PM 30.9 °F 21.7 °F 5.0 °F 33% 29.69 in - West 11.5 mph 33.4 mph N/A   Unknown
1:56 PM 30.0 °F 18.7 °F 3.9 °F 33% 29.62 in - West 16.1 mph 28.8 mph N/A   Unknown
2:56 PM 30.0 °F 23.2 °F 3.0 °F 32% 29.60 in - Variable 6.9 mph 26.5 mph N/A   Unknown
3:56 PM 28.0 °F 20.0 °F 3.0 °F 34% 29.61 in - WSW 8.1 mph 23.0 mph N/A   Unknown
4:56 PM 26.1 °F 18.4 °F 3.9 °F 39% 29.63 in - Variable 6.9 mph 21.9 mph N/A   Unknown
5:56 PM 23.0 °F 13.1 °F 5.0 °F 46% 29.65 in - WSW 9.2 mph - N/A   Unknown
6:56 PM 21.0 °F 16.2 °F 6.1 °F 53% 29.67 in - Variable 3.5 mph - N/A   Unknown
7:56 PM 21.9 °F 14.5 °F 7.0 °F 53% 29.67 in - Variable 5.8 mph - N/A   Unknown
8:56 PM 19.0 °F 12.3 °F 10.9 °F 71% 29.65 in - Variable 4.6 mph - N/A   Unknown
9:56 PM 18.0 °F 9.8 °F 10.9 °F 74% 29.63 in - Variable 5.8 mph - N/A   Unknown
10:56 PM 17.1 °F 8.7 °F 10.0 °F 74% 29.63 in - Variable 5.8 mph 17.3 mph N/A   Unknown
11:56 PM 15.1 °F 7.7 °F 10.0 °F 80% 29.63 in - Variable 4.6 mph - N/A   Unknown